This demonstration page uses our WeatherBlox Daily Observations layout. Learn more.

36.17497, -115.13722

Hourly Observations for July 2, 2016

Temp ( °F °C ) Dew Point ( °F °C ) Humidity (%) Winds ( mph kmh ) Pressure ( in mb ) Visibility ( mi km ) Precip ( " mm )
12:53 am 00:53 Mostly Cloudy with Light Rain 71 21.7 63 17.2 76 76 NW 14 22 29.94 1014 10 16.09344 0.001 0.001
1:53 am 01:53 Mostly Clear 75 23.9 59 15 58 58 N 10 17 29.91 1013 10 16.09344 0.001 0.001
2:53 am 02:53 Mostly Clear 74 23.3 58 14.4 57 57 ESE 3 6 29.91 1013 10 16.09344 0 0
3:53 am 03:53 Clear 72 22.2 63 17.2 73 73 Calm 29.91 1013 10 16.09344 0 0
4:53 am 04:53 Clear 72 22.2 63 17.2 73 73 WSW 6 9 29.91 1013 10 16.09344 0 0
5:53 am 05:53 Sunny 73 22.8 62 16.7 69 69 SW 3 6 29.91 1013 10 16.09344 0 0
6:53 am 06:53 Sunny 73 22.8 63 17.2 71 71 E 5 7 29.94 1014 10 16.09344 0 0
7:53 am 07:53 Sunny 75 23.9 62 16.7 64 64 E 5 7 29.94 1014 10 16.09344 0 0
8:53 am 08:53 Sunny 78 25.6 60 15.6 54 54 ENE 6 9 29.94 1014 10 16.09344 0 0
9:53 am 09:53 Sunny 80 26.7 58 14.4 47 47 E 8 13 29.94 1014 10 16.09344 0 0
10:53 am 10:53 Sunny 83 28.3 57 13.9 41 41 E 8 13 29.94 1014 10 16.09344 0 0
11:53 am 11:53 Sunny 85 29.4 57 13.9 39 39 N 5 7 29.88 1012 10 16.09344 0 0
12:53 pm 12:53 Sunny 87 30.6 57 13.9 36 36 N 6 9 29.88 1012 10 16.09344 0 0
1:53 pm 13:53 Sunny 88 31.1 57 13.9 35 35 N 5 7 29.85 1011 10 16.09344 0 0
2:53 pm 14:53 Sunny 91 32.8 56 13.3 31 31 undefined N/A 29.8 1009 10 16.09344 0 0
3:53 pm 15:53 Sunny 92 33.3 57 13.9 31 31 ESE 7 11 29.77 1008 10 16.09344 0 0
4:53 pm 16:53 Sunny 93 33.9 58 14.4 31 31 N 6 9 29.77 1008 10 16.09344 0 0
5:53 pm 17:53 Sunny 95 35 59 15 30 30 undefined N/A 29.74 1007 10 16.09344 0 0
6:53 pm 18:53 Sunny 94 34.4 60 15.6 32 32 N 3 6 29.74 1007 10 16.09344 0 0
7:53 pm 19:53 Sunny 94 34.4 56 13.3 28 28 Calm 29.74 1007 10 16.09344 0 0
8:53 pm 20:53 Clear 92 33.3 57 13.9 31 31 SE 10 17 29.77 1008 10 16.09344 0 0
9:53 pm 21:53 Clear 90 32.2 58 14.4 34 34 SSE 7 11 29.77 1008 10 16.09344 0 0
10:53 pm 22:53 Clear 89 31.7 60 15.6 38 38 SSE 5 7 29.8 1009 10 16.09344 0 0
11:53 pm 23:53 Clear 88 31.1 61 16.1 40 40 NNE 3 6 29.8 1009 10 16.09344 0 0

Powered by AerisWeather